{"data":{"norad_id":65679,"epoch":"2026-09-20T07:13:14.725632Z","epoch_age_seconds":125730,"freshness":"FRESH","line1":"1 65679U 25212D   26263.30086488  .00013831  00000+0  41969-3 0  9998","line2":"2 65679  53.1589 158.5899 0001322 106.9250 253.1898 15.34401813 57033","mean_motion":15.34401813,"eccentricity":0.0001322,"inclination_deg":53.1589,"raan_deg":158.5899,"arg_perigee_deg":106.925,"mean_anomaly_deg":253.1898,"bstar":0.00041969,"rev_number":5703,"period_min":93.847647193832,"perigee_km":461.79349322696,"apogee_km":463.60220996172,"semimajor_km":6840.8348515943,"source":"CELESTRAK","updated_at":"2026-09-21T09:00:35.685002Z"}}